Regional Weather Roundup
Issued by NWS

Home | Current Version | Previous Version | Text Only | Print | Product List | Glossary Off
Versions: 1 2 3 4 5 6 7 8 9 10 11 12 13 14 15 16 17 18 19 20 21 22 23 24 25 26 27 28 29 30 31 32 33 34 35 36 37 38 39 40 41 42 43 44 45 46 47 48 49 50

000
ASUS43 KMPX 172001
RWRMN
WEATHER ROUNDUP FOR MINNESOTA
NATIONAL WEATHER SERVICE TWIN CITIES/CHANHASSEN MN
200 PM CST SUN DEC 17 2017


NOTE: "FAIR" INDICATES FEW OR NO CLOUDS BELOW 12,000 FEET WITH NO
SIGNIFICANT WEATHER AND/OR OBSTRUCTIONS TO VISIBILITY. N/A MEANS
CURRENT SKY AND/OR WEATHER CONDITIONS ARE NOT AVAILABLE.

MNZ060>063-068>070-172100-
   Twin Cities Metro

CITY           SKY/WX    TMP DP  RH WIND       PRES   REMARKS
TWIN CITIES    CLOUDY    28  25  88 VRB3      30.01F FOG
ST PAUL        CLOUDY    28  24  85 S6        30.03F FOG     WCI  22
CRYSTAL        CLOUDY    26  21  81 CALM      30.01F HAZE
BLAINE         LGT SNOW  27  27 100 CALM      30.01F FOG
LAKEVILLE        N/A     25  25 100 CALM      30.02F FOG
EDEN PRAIRIE   CLOUDY    28  23  81 S5        30.00F HAZE    WCI  23
SOUTH ST PAUL  MOSUNNY   28  25  87 CALM      30.01F FOG
LAKE ELMO      CLOUDY    28  27  93 CALM      30.02F FOG
$$
MNZ001>005-007-008-013>017-022>024-027-028-172100-
   Northwest Minnesota

CITY           SKY/WX    TMP DP  RH WIND       PRES   REMARKS
BEMIDJI        SUNNY     33  28  80 SW6       29.90F WCI  28
HALLOCK        SUNNY     21  19  93 S9        29.88F WCI  11
ROSEAU         SUNNY     25  19  80 SW8       29.88F WCI  16
WARROAD        SUNNY     27  21  80 SW8       29.87F WCI  18
CROOKSTON      SUNNY     21  21 100 S9        29.92F WCI  11
FOSSTON        CLOUDY    27  25  93 SW8       29.92F FOG     WCI  18
DETROIT LAKES  SUNNY     32  28  86 SW7       29.94F WCI  26
MOORHEAD       CLOUDY    28  27  93 S9        29.95F FOG     WCI  20
PARK RAPIDS    CLOUDY    28  26  92 SW7       29.93F WCI  21
MAHNOMEN       CLOUDY    28  28  96 SW9       29.94F FOG     WCI  20
$$
MNZ006-009>011-018-025>026-172100-
   North Central Minnesota

CITY           SKY/WX    TMP DP  RH WIND       PRES   REMARKS
BAUDETTE       SUNNY     30  24  78 SW8       29.87F WCI  22
FLAG ISLAND    SUNNY     19  18  93 S3        29.84F
INTL FALLS     MOSUNNY   29  24  82 SW5       29.88F WCI  24
WASKISH        SUNNY     28  27  93 SW7       29.90F WCI  21
BIG FORK       CLOUDY    28  27  93 S7        29.92F FOG     WCI  21
LONGVILLE      CLOUDY    28  27  93 S3        29.94F FOG
GRAND RAPIDS   CLOUDY    25  23  92 S5        29.96F FOG     WCI  19
CRANE LAKE     CLOUDY    27  23  86 S3        29.93F
ORR            CLOUDY    25  21  86 S6        29.89F WCI  18
COOK           CLOUDY    25  23  93 S6        29.93F WCI  18
WALKER         CLOUDY    28  25  88 S6        29.93F WCI  22
$$
MNZ012-019>021-037-172100-
   Northeast Minnesota

CITY           SKY/WX    TMP DP  RH WIND       PRES   REMARKS
DULUTH         CLOUDY    23  21  92 W7        29.95F WCI  15
ELY            CLOUDY    23  21  93 SW6       29.93F WCI  16
HIBBING        CLOUDY    22  21  96 S6        29.94F WCI  14
EVELETH        CLOUDY    22  19  88 S6        29.95F WCI  15
DULUTH HARBOR  PTSUNNY   27  23  86 W7        30.01F WCI  19
TWO HARBORS    CLOUDY    30  23  74 S3        29.96F
GRAND MARAIS     N/A     30  26  85 SW12      29.98F WCI  20
G MARAIS ARPRT CLOUDY    21  19  93 S6        29.92F FOG     WCI  14
$$
MNZ029>031-032-039>041-046>048-054>057-064-172100-
   West Central Minnesota

CITY           SKY/WX    TMP DP  RH WIND       PRES   REMARKS
FERGUS FALLS   CLOUDY    30  30 100 S5        29.99F FOG     WCI  25
WHEATON        CLOUDY    32  30  93 SE7       29.99F FOG     WCI  26
MORRIS         CLOUDY    30  28  93 S7        29.97F WCI  23
ALEXANDRIA     CLOUDY    29  27  92 S6        29.97F FOG     WCI  23
ELBOW LAKE     CLOUDY    29  29 100 SW7       29.97F FOG     WCI  22
WADENA         CLOUDY    28  27  93 CALM      29.95F
GLENWOOD       CLOUDY    27  27 100 S5        29.98F FOG     WCI  21
APPLETON       CLOUDY    32  27  80 S6        29.98F WCI  26
BENSON         CLOUDY    30  27  86 S5        30.00F WCI  25
ORTONVILLE     CLOUDY    30  30 100 S6        29.97F FOG     WCI  24
MADISON        CLOUDY    36  30  80 S5        29.98F
WILLMAR        CLOUDY    28  27  93 CALM      30.00F FOG
$$
MNZ033>034-036-042>043-049>051-058-059-172100-
   Central Minnesota

CITY           SKY/WX    TMP DP  RH WIND       PRES   REMARKS
ST CLOUD       CLOUDY    26  21  81 CALM      30.00F
SAUK CENTRE    CLOUDY    26  25  96 S3        29.98F
PAYNESVILLE    CLOUDY    28  25  88 CALM      30.00F
AITKIN         CLOUDY    25  21  86 CALM      29.96F
PINE RIVER     CLOUDY    25  25 100 CALM      29.99F FOG
BRAINERD       CLOUDY    26  22  84 S5        29.98F FOG     WCI  20
STAPLES        CLOUDY    28  27  93 CALM      29.96F FOG
LONG PRAIRIE   CLOUDY    27  27 100 S5        29.98F FOG     WCI  21
LITTLE FALLS   CLOUDY    27  18  69 CALM      29.99F
LITCHFIELD     CLOUDY    28  23  80 CALM      30.01F
BUFFALO        CLOUDY    26  21  81 CALM      30.02F
MAPLE LAKE     CLOUDY    28  23  82 CALM      30.02F
HUTCHINSON     CLOUDY    28  22  78 CALM      30.02S
$$
MNZ037-044-045-052-053-172100-
   East Central Minnesota

CITY           SKY/WX    TMP DP  RH WIND       PRES   REMARKS
PRINCETON      CLOUDY    28  21  74 CALM      30.01F
MORA           MOSUNNY   27  21  80 CALM      30.02F
CAMBRIDGE      CLOUDY    27  19  74 CALM      30.01F
RUSH CITY      CLOUDY    25  22  87 CALM      30.01F
MOOSE LAKE     CLOUDY    27  19  74 CALM      29.97F
HINCKLEY       FAIR      27  23  86 CALM      30.00F
CLOQUET        CLOUDY    25  19  80 SW3       29.97F
MCGREGOR       CLOUDY    27  23  86 CALM      29.98F
$$
MNZ071>073-080-081-089-090-097-098-172100-
   Southwest Minnesota

CITY           SKY/WX    TMP DP  RH WIND       PRES   REMARKS
MONTEVIDEO     MOSUNNY   30  28  93 CALM      29.99F
GRANITE FALLS  PTSUNNY   31  26  82 CALM      30.02F HAZE
CANBY          CLOUDY    38  31  76 CALM      29.98F
MARSHALL       CLOUDY    34  27  75 CALM      29.98F
REDWOOD FALLS  CLOUDY    30  24  78 CALM      30.00F
OLIVIA         MOSUNNY   30  25  80 CALM      30.00F
PIPESTONE      CLOUDY    34  28  80 CALM      29.94F
WINDOM           N/A     30  18  59 CALM      29.98F
WORTHINGTON    CLOUDY    30  29  96 N7        29.97F WCI  23
JACKSON        CLOUDY    32  23  69 N5        29.97F WCI  27
SLAYTON        CLOUDY    30  29  96 N3        29.99F
$$
MNZ065>067-074>077-082>085-091>093-172100-
   South Central Minnesota

CITY           SKY/WX    TMP DP  RH WIND       PRES   REMARKS
MANKATO        CLOUDY    26  23  88 CALM      30.01F FOG
NEW ULM        PTSUNNY   32  21  64 CALM      30.00F
ST JAMES       CLOUDY    30  23  74 CALM      30.01F
FAIRMONT       PTSUNNY   31  24  75 NE5       29.99F WCI  26
GLENCOE        CLOUDY    28  26  92 CALM      30.01F
FARIBAULT      CLOUDY    27  25  93 CALM      30.00F FOG
OWATONNA       CLOUDY    27  27 100 CALM      29.99F FOG
WASECA         CLOUDY    28  27  93 CALM      30.01F FOG
$$
MNZ078>079-086>088-094>096-172100-
   Southeast Minnesota

CITY           SKY/WX    TMP DP  RH WIND       PRES   REMARKS
ROCHESTER      LGT SNOW  28  27  96 CALM      29.99F FOG
RED WING       CLOUDY    28  25  86 CALM      30.01F FOG
STANTON        CLOUDY    28  25  90 CALM      29.99F FOG
DODGE CENTER   CLOUDY    27  27 100 CALM      29.98F FOG
WINONA         LGT SNOW  30  28  93 CALM      30.03F
AUSTIN         LGT SNOW  28  27  93 CALM      29.98F
PRESTON        CLOUDY    28  28  96 CALM      29.99F FOG
$$
ABBREVIATIONS USED IN REMARKS
   TC - TEMPERATURES IN CELSIUS
  WCI - WIND CHILL INDEX
   HX - HEAT INDEX
  VSB - VISIBILITY
$$




USA.gov is the U.S. government's official web portal to all federal, state and local government web resources and services.